Starlink 31990

operational
NORAD ID: 60024 Int'l Des: 2024-111 Owner: SPXS Country: US Constellation: starlink
LEOCIRCULAR

Über Starlink 31990

Beschreibung wird geladen...

Live-Position

3D-Globus wird geladen...

Nächste Überflüge

Höhenverlauf

Altitude vs Time

uPlot chart will show altitude changes over time

Zweizeiliger Elementsatz

1 60024U 24111J 25352.56659831 .00000126 00000-0 16389-4 0 9991
2 60024 53.1608 92.4038 0001169 70.7855 289.3272 15.30193623 86619
Epoch: 18. Dez. 2025 • Age: 12 hours

Aktueller Status

Höhe 485.3 km
Geschwindigkeit 7.62 km/s
Subsatellitenpunkt -31.48°S, 54.49°W
Startdatum 8. Juni 2024
Alter 1.5 years
Typ internet

Technische Details

Klassifizierung Payload
Masse 730.00 kg
Trockenmasse 700.00 kg
Gesamtmasse 730.00 kg
Länge 0.30 m
Durchmesser 4.10 m
Spannweite 29.00 m
Form Box + pan
Hersteller SPXS
Bus-Typ Starlink V2M
Phasenstatus In Orbit
Besitzer/Staat SPXS/US

Große Konstellationen

Loading constellations...